Location: Central Falls
(41.8900°N, 71.3929°W)
Time: 03:34:03
(UTC+00:00)

Vanguard 2 Rocket - Pass Details

Date: 06 December 2023
Orbit: 555 x 3309 km, 32.9° (Epoch: 01 March)

Event Time Altitude Azimuth Distance (km) Brightness Sun altitude
Rises 18:32:09 0° 232° (SW) 5,890 12.2 20.3°
Reaches altitude 10° 18:35:42 10° 227° (SW) 5,191 12.4 19.9°
Maximum altitude 18:51:34 53° 157° (SSE) 3,686 10.6 18.4°
Drops below altitude 10° 19:10:34 10° 89° (E) 6,123 10.8 16.4°
Sets 19:15:10 0° 85° (E) 6,972 11.0 15.9°
